Year,Month,Day,Hour,Minute,Value (Times are PST for temperature in C)
2018,04,24,00,00,7.40
2018,04,24,00,01,7.40
2018,04,24,00,02,7.30
2018,04,24,00,03,7.30
2018,04,24,00,04,7.30
2018,04,24,00,05,7.30
2018,04,24,00,06,7.30
2018,04,24,00,07,7.30
2018,04,24,00,08,7.20
2018,04,24,00,09,7.20
2018,04,24,00,10,7.20
2018,04,24,00,11,7.20
2018,04,24,00,12,7.20
2018,04,24,00,13,7.20
2018,04,24,00,14,7.20
2018,04,24,00,15,7.20
2018,04,24,00,16,7.10
2018,04,24,00,17,7.10
2018,04,24,00,18,7.10
2018,04,24,00,19,7.10
2018,04,24,00,20,7.10
2018,04,24,00,21,7.10
2018,04,24,00,22,7.10
2018,04,24,00,23,7.10
2018,04,24,00,24,7.10
2018,04,24,00,25,7.00
2018,04,24,00,26,7.00
2018,04,24,00,27,7.00
2018,04,24,00,28,7.00
2018,04,24,00,29,7.00
2018,04,24,00,30,6.90
2018,04,24,00,31,6.90
2018,04,24,00,32,6.90
2018,04,24,00,33,6.90
2018,04,24,00,34,6.90
2018,04,24,00,35,6.90
2018,04,24,00,36,6.80
2018,04,24,00,37,6.80
2018,04,24,00,38,6.80
2018,04,24,00,39,6.80
2018,04,24,00,40,6.80
2018,04,24,00,41,6.80
2018,04,24,00,42,6.80
2018,04,24,00,43,6.80
2018,04,24,00,44,6.80
2018,04,24,00,45,6.80
2018,04,24,00,46,6.80
2018,04,24,00,47,6.80
2018,04,24,00,48,6.80
2018,04,24,00,49,6.80
2018,04,24,00,50,6.80
2018,04,24,00,51,6.80
2018,04,24,00,52,6.80
2018,04,24,00,53,6.80
2018,04,24,00,54,6.80
2018,04,24,00,55,6.80
2018,04,24,00,56,6.80
2018,04,24,00,57,6.80
2018,04,24,00,58,6.80
2018,04,24,00,59,6.80
2018,04,24,01,00,6.70
2018,04,24,01,01,6.70
2018,04,24,01,02,6.70
2018,04,24,01,03,6.70
2018,04,24,01,04,6.70
2018,04,24,01,05,6.60
2018,04,24,01,06,6.60
2018,04,24,01,07,6.60
2018,04,24,01,08,6.60
2018,04,24,01,09,6.60
2018,04,24,01,10,6.60
2018,04,24,01,11,6.60
2018,04,24,01,12,6.60
2018,04,24,01,13,6.60
2018,04,24,01,14,6.60
2018,04,24,01,15,6.40
2018,04,24,01,16,6.40
2018,04,24,01,17,6.40
2018,04,24,01,18,6.40
2018,04,24,01,19,6.40
2018,04,24,01,20,6.50
2018,04,24,01,21,6.60
2018,04,24,01,22,6.60
2018,04,24,01,23,6.60
2018,04,24,01,24,6.60
2018,04,24,01,25,6.60
2018,04,24,01,26,6.60
2018,04,24,01,27,6.60
2018,04,24,01,28,6.60
2018,04,24,01,29,6.60
2018,04,24,01,30,6.60
2018,04,24,01,31,6.60
2018,04,24,01,32,6.50
2018,04,24,01,33,6.40
2018,04,24,01,34,6.40
2018,04,24,01,35,6.40
2018,04,24,01,36,6.40
2018,04,24,01,37,6.40
2018,04,24,01,38,6.30
2018,04,24,01,39,6.30
2018,04,24,01,40,6.30
2018,04,24,01,41,6.30
2018,04,24,01,42,6.30
2018,04,24,01,43,6.30
2018,04,24,01,44,6.30
2018,04,24,01,45,6.30
2018,04,24,01,46,6.30
2018,04,24,01,47,6.30
2018,04,24,01,48,6.20
2018,04,24,01,49,6.20
2018,04,24,01,50,6.20
2018,04,24,01,51,6.20
2018,04,24,01,52,6.20
2018,04,24,01,53,6.20
2018,04,24,01,54,6.20
2018,04,24,01,55,6.20
2018,04,24,01,56,6.20
2018,04,24,01,57,6.20
2018,04,24,01,58,6.20
2018,04,24,01,59,6.20
2018,04,24,02,00,6.20
2018,04,24,02,01,6.20
2018,04,24,02,02,6.20
2018,04,24,02,03,6.20
2018,04,24,02,04,6.20
2018,04,24,02,05,6.20
2018,04,24,02,06,6.20
2018,04,24,02,07,6.20
2018,04,24,02,08,6.20
2018,04,24,02,09,6.20
2018,04,24,02,10,6.20
2018,04,24,02,11,6.20
2018,04,24,02,12,6.20
2018,04,24,02,13,6.20
2018,04,24,02,14,6.20
2018,04,24,02,15,6.20
2018,04,24,02,16,6.10
2018,04,24,02,17,6.10
2018,04,24,02,18,6.10
2018,04,24,02,19,6.10
2018,04,24,02,20,6.10
2018,04,24,02,21,6.10
2018,04,24,02,22,6.10
2018,04,24,02,23,6.10
2018,04,24,02,24,6.20
2018,04,24,02,25,6.20
2018,04,24,02,26,6.30
2018,04,24,02,27,6.30
2018,04,24,02,28,6.40
2018,04,24,02,29,6.40
2018,04,24,02,30,6.50
2018,04,24,02,31,6.60
2018,04,24,02,32,6.60
2018,04,24,02,33,6.60
2018,04,24,02,34,6.60
2018,04,24,02,35,6.60
2018,04,24,02,36,6.60
2018,04,24,02,37,6.60
2018,04,24,02,38,6.50
2018,04,24,02,39,6.40
2018,04,24,02,40,6.40
2018,04,24,02,41,6.40
2018,04,24,02,42,6.40
2018,04,24,02,43,6.40
2018,04,24,02,44,6.40
2018,04,24,02,45,6.40
2018,04,24,02,46,6.40
2018,04,24,02,47,6.40
2018,04,24,02,48,6.30
2018,04,24,02,49,6.30
2018,04,24,02,50,6.20
2018,04,24,02,51,6.10
2018,04,24,02,52,6.00
2018,04,24,02,53,6.00
2018,04,24,02,54,5.90
2018,04,24,02,55,5.90
2018,04,24,02,56,5.80
2018,04,24,02,57,5.80
2018,04,24,02,58,5.70
2018,04,24,02,59,5.70
2018,04,24,03,00,5.70
2018,04,24,03,01,5.70
2018,04,24,03,02,5.70
2018,04,24,03,03,5.70
2018,04,24,03,04,5.70
2018,04,24,03,05,5.70
2018,04,24,03,06,5.70
2018,04,24,03,07,5.70
2018,04,24,03,08,5.70
2018,04,24,03,09,5.70
2018,04,24,03,10,5.70
2018,04,24,03,11,5.70
2018,04,24,03,12,5.70
2018,04,24,03,13,5.70
2018,04,24,03,14,5.70
2018,04,24,03,15,5.70
2018,04,24,03,16,5.70
2018,04,24,03,17,5.70
2018,04,24,03,18,5.70
2018,04,24,03,19,5.70
2018,04,24,03,20,5.70
2018,04,24,03,21,5.80
2018,04,24,03,22,5.80
2018,04,24,03,23,5.80
2018,04,24,03,24,5.80
2018,04,24,03,25,5.90
2018,04,24,03,26,5.90
2018,04,24,03,27,6.00
2018,04,24,03,28,6.10
2018,04,24,03,29,6.10
2018,04,24,03,30,6.20
2018,04,24,03,31,6.20
2018,04,24,03,32,6.10
2018,04,24,03,33,6.00
2018,04,24,03,34,5.90
2018,04,24,03,35,5.80
2018,04,24,03,36,5.70
2018,04,24,03,37,5.60
2018,04,24,03,38,5.50
2018,04,24,03,39,5.50
2018,04,24,03,40,5.40
2018,04,24,03,41,5.40
2018,04,24,03,42,5.40
2018,04,24,03,43,5.40
2018,04,24,03,44,5.40
2018,04,24,03,45,5.50
2018,04,24,03,46,5.50
2018,04,24,03,47,5.50
2018,04,24,03,48,5.60
2018,04,24,03,49,5.60
2018,04,24,03,50,5.70
2018,04,24,03,51,5.70
2018,04,24,03,52,5.70
2018,04,24,03,53,5.70
2018,04,24,03,54,5.70
2018,04,24,03,55,5.80
2018,04,24,03,56,5.80
2018,04,24,03,57,5.90
2018,04,24,03,58,5.90
2018,04,24,03,59,5.90
2018,04,24,04,00,6.00
2018,04,24,04,01,6.00
2018,04,24,04,02,6.00
2018,04,24,04,03,6.00
2018,04,24,04,04,6.00
2018,04,24,04,05,6.00
2018,04,24,04,06,5.90
2018,04,24,04,07,5.90
2018,04,24,04,08,5.90
2018,04,24,04,09,5.90
2018,04,24,04,10,5.90
2018,04,24,04,11,5.90
2018,04,24,04,12,5.90
2018,04,24,04,13,6.00
2018,04,24,04,14,6.00
2018,04,24,04,15,6.00
2018,04,24,04,16,6.10
2018,04,24,04,17,6.20
2018,04,24,04,18,6.20
2018,04,24,04,19,6.10
2018,04,24,04,20,6.10
2018,04,24,04,21,6.00
2018,04,24,04,22,6.00
2018,04,24,04,23,6.00
2018,04,24,04,24,5.90
2018,04,24,04,25,5.90
2018,04,24,04,26,5.90
2018,04,24,04,27,5.90
2018,04,24,04,28,5.90
2018,04,24,04,29,5.90
2018,04,24,04,30,5.80
2018,04,24,04,31,5.80
2018,04,24,04,32,5.80
2018,04,24,04,33,5.80
2018,04,24,04,34,5.80
2018,04,24,04,35,5.80
2018,04,24,04,36,5.80
2018,04,24,04,37,5.90
2018,04,24,04,38,6.00
2018,04,24,04,39,6.00
2018,04,24,04,40,6.20
2018,04,24,04,41,6.20
2018,04,24,04,42,6.30
2018,04,24,04,43,6.40
2018,04,24,04,44,6.40
2018,04,24,04,45,6.40
2018,04,24,04,46,6.50
2018,04,24,04,47,6.60
2018,04,24,04,48,6.60
2018,04,24,04,49,6.70
2018,04,24,04,50,6.70
2018,04,24,04,51,6.70
2018,04,24,04,52,6.70
2018,04,24,04,53,6.70
2018,04,24,04,54,6.70
2018,04,24,04,55,6.70
2018,04,24,04,56,6.80
2018,04,24,04,57,6.80
2018,04,24,04,58,6.80
2018,04,24,04,59,6.80
2018,04,24,05,00,6.80
2018,04,24,05,01,6.80
2018,04,24,05,02,6.90
2018,04,24,05,03,7.00
2018,04,24,05,04,7.10
2018,04,24,05,05,7.10
2018,04,24,05,06,7.20
2018,04,24,05,07,7.30
2018,04,24,05,08,7.30
2018,04,24,05,09,7.30
2018,04,24,05,10,7.30
2018,04,24,05,11,7.30
2018,04,24,05,12,7.30
2018,04,24,05,13,7.30
2018,04,24,05,14,7.40
2018,04,24,05,15,7.40
2018,04,24,05,16,7.40
2018,04,24,05,17,7.40
2018,04,24,05,18,7.30
2018,04,24,05,19,7.30
2018,04,24,05,20,7.30
2018,04,24,05,21,7.40
2018,04,24,05,22,7.40
2018,04,24,05,23,7.40
2018,04,24,05,24,7.50
2018,04,24,05,25,7.50
2018,04,24,05,26,7.50
2018,04,24,05,27,7.60
2018,04,24,05,28,7.60
2018,04,24,05,29,7.70
2018,04,24,05,30,7.70
2018,04,24,05,31,7.70
2018,04,24,05,32,7.70
2018,04,24,05,33,7.70
2018,04,24,05,34,7.80
2018,04,24,05,35,7.80
2018,04,24,05,36,7.80
2018,04,24,05,37,7.80
2018,04,24,05,38,7.80
2018,04,24,05,39,7.90
2018,04,24,05,40,7.90
2018,04,24,05,41,8.00
2018,04,24,05,42,8.00
2018,04,24,05,43,8.00
2018,04,24,05,44,8.00
2018,04,24,05,45,8.00
2018,04,24,05,46,8.00
2018,04,24,05,47,8.00
2018,04,24,05,48,8.10
2018,04,24,05,49,8.10
2018,04,24,05,50,8.10
2018,04,24,05,51,8.10
2018,04,24,05,52,8.20
2018,04,24,05,53,8.20
2018,04,24,05,54,8.30
2018,04,24,05,55,8.30
2018,04,24,05,56,8.40
2018,04,24,05,57,8.40
2018,04,24,05,58,8.50
2018,04,24,05,59,8.50
2018,04,24,06,00,8.50
2018,04,24,06,01,8.50
2018,04,24,06,02,8.50
2018,04,24,06,03,8.50
2018,04,24,06,04,8.50
2018,04,24,06,05,8.50
2018,04,24,06,06,8.50
2018,04,24,06,07,8.60
2018,04,24,06,08,8.60
2018,04,24,06,09,8.60
2018,04,24,06,10,8.60
2018,04,24,06,11,8.60
2018,04,24,06,12,8.60
2018,04,24,06,13,8.60
2018,04,24,06,14,8.60
2018,04,24,06,15,8.60
2018,04,24,06,16,8.60
2018,04,24,06,17,8.60
2018,04,24,06,18,8.60
2018,04,24,06,19,8.60
2018,04,24,06,20,8.60
2018,04,24,06,21,8.60
2018,04,24,06,22,8.60
2018,04,24,06,23,8.70
2018,04,24,06,24,8.70
2018,04,24,06,25,8.70
2018,04,24,06,26,8.70
2018,04,24,06,27,8.70
2018,04,24,06,28,8.70
2018,04,24,06,29,8.70
2018,04,24,06,30,8.70
2018,04,24,06,31,8.70
2018,04,24,06,32,8.70
2018,04,24,06,33,8.70
2018,04,24,06,34,8.70
2018,04,24,06,35,8.70
2018,04,24,06,36,8.70
2018,04,24,06,37,8.70
2018,04,24,06,38,8.70
2018,04,24,06,39,8.80
2018,04,24,06,40,8.80
2018,04,24,06,41,8.90
2018,04,24,06,42,8.90
2018,04,24,06,43,9.00
2018,04,24,06,44,9.00
2018,04,24,06,45,9.10
2018,04,24,06,46,9.10
2018,04,24,06,47,9.20
2018,04,24,06,48,9.30
2018,04,24,06,49,9.30
2018,04,24,06,50,9.40
2018,04,24,06,51,9.50
2018,04,24,06,52,9.50
2018,04,24,06,53,9.50
2018,04,24,06,54,9.50
2018,04,24,06,55,9.50
2018,04,24,06,56,9.50
2018,04,24,06,57,9.60
2018,04,24,06,58,9.60
2018,04,24,06,59,9.70
2018,04,24,07,00,9.70
2018,04,24,07,01,9.80
2018,04,24,07,02,9.90
2018,04,24,07,03,10.00
2018,04,24,07,04,10.10
2018,04,24,07,05,10.20
2018,04,24,07,06,10.20
2018,04,24,07,07,10.30
2018,04,24,07,08,10.40
2018,04,24,07,09,10.40
2018,04,24,07,10,10.40
2018,04,24,07,11,10.40
2018,04,24,07,12,10.60
2018,04,24,07,13,10.60
2018,04,24,07,14,10.60
2018,04,24,07,15,10.60
2018,04,24,07,16,10.60
2018,04,24,07,17,10.70
2018,04,24,07,18,10.70
2018,04,24,07,19,10.80
2018,04,24,07,20,10.90
2018,04,24,07,21,10.90
2018,04,24,07,22,10.90
2018,04,24,07,23,11.00
2018,04,24,07,24,11.10
2018,04,24,07,25,11.10
2018,04,24,07,26,11.10
2018,04,24,07,27,11.20
2018,04,24,07,28,11.30
2018,04,24,07,29,11.30
2018,04,24,07,30,11.40
2018,04,24,07,31,11.40
2018,04,24,07,32,11.50
2018,04,24,07,33,11.60
2018,04,24,07,34,11.60
2018,04,24,07,35,11.70
2018,04,24,07,36,11.80
2018,04,24,07,37,11.80
2018,04,24,07,38,11.80
2018,04,24,07,39,11.80
2018,04,24,07,40,11.80
2018,04,24,07,41,11.80
2018,04,24,07,42,11.80
2018,04,24,07,43,11.80
2018,04,24,07,44,11.90
2018,04,24,07,45,11.90
2018,04,24,07,46,11.90
2018,04,24,07,47,12.00
2018,04,24,07,48,12.00
2018,04,24,07,49,12.10
2018,04,24,07,50,12.20
2018,04,24,07,51,12.30
2018,04,24,07,52,12.30
2018,04,24,07,53,12.40
2018,04,24,07,54,12.40
2018,04,24,07,55,12.50
2018,04,24,07,56,12.50
2018,04,24,07,57,12.60
2018,04,24,07,58,12.60
2018,04,24,07,59,12.70
2018,04,24,08,00,12.70
2018,04,24,08,01,12.80
2018,04,24,08,02,12.80
2018,04,24,08,03,12.80
2018,04,24,08,04,12.80
2018,04,24,08,05,12.80
2018,04,24,08,06,12.80
2018,04,24,08,07,12.80
2018,04,24,08,08,12.90
2018,04,24,08,09,12.90
2018,04,24,08,10,12.90
2018,04,24,08,11,12.90
2018,04,24,08,12,12.90
2018,04,24,08,13,12.90
2018,04,24,08,14,13.00
2018,04,24,08,15,13.00
2018,04,24,08,16,13.00
2018,04,24,08,17,13.00
2018,04,24,08,18,13.10
2018,04,24,08,19,13.10
2018,04,24,08,20,13.10
2018,04,24,08,21,13.20
2018,04,24,08,22,13.20
2018,04,24,08,23,13.30
2018,04,24,08,24,13.30
2018,04,24,08,25,13.30
2018,04,24,08,26,13.30
2018,04,24,08,27,13.40
2018,04,24,08,28,13.40
2018,04,24,08,29,13.40
2018,04,24,08,30,13.50
2018,04,24,08,31,13.50
2018,04,24,08,32,13.50
2018,04,24,08,33,13.60
2018,04,24,08,34,13.60
2018,04,24,08,35,13.60
2018,04,24,08,36,13.60
2018,04,24,08,37,13.60
2018,04,24,08,38,13.60
2018,04,24,08,39,13.60
2018,04,24,08,40,13.60
2018,04,24,08,41,13.60
2018,04,24,08,42,13.70
2018,04,24,08,43,13.70
2018,04,24,08,44,13.70
2018,04,24,08,45,13.70
2018,04,24,08,46,13.70
2018,04,24,08,47,13.70
2018,04,24,08,48,13.70
2018,04,24,08,49,13.70
2018,04,24,08,50,13.70
2018,04,24,08,51,13.70
2018,04,24,08,52,13.70
2018,04,24,08,53,13.70
2018,04,24,08,54,13.70
2018,04,24,08,55,13.70
2018,04,24,08,56,13.70
2018,04,24,08,57,13.70
2018,04,24,08,58,13.80
2018,04,24,08,59,13.80
2018,04,24,09,00,13.80
2018,04,24,09,01,13.90
2018,04,24,09,02,13.90
2018,04,24,09,03,13.90
2018,04,24,09,04,14.00
2018,04,24,09,05,14.00
2018,04,24,09,06,14.20
2018,04,24,09,07,14.20
2018,04,24,09,08,14.20
2018,04,24,09,09,14.20
2018,04,24,09,10,14.20
2018,04,24,09,11,14.20
2018,04,24,09,12,14.20
2018,04,24,09,13,14.30
2018,04,24,09,14,14.30
2018,04,24,09,15,14.30
2018,04,24,09,16,14.30
2018,04,24,09,17,14.30
2018,04,24,09,18,14.40
2018,04,24,09,19,14.40
2018,04,24,09,20,14.40
2018,04,24,09,21,14.50
2018,04,24,09,22,14.50
2018,04,24,09,23,14.50
2018,04,24,09,24,14.60
2018,04,24,09,25,14.60
2018,04,24,09,26,14.70
2018,04,24,09,27,14.70
2018,04,24,09,28,14.80
2018,04,24,09,29,14.80
2018,04,24,09,30,14.80
2018,04,24,09,31,14.80
2018,04,24,09,32,14.90
2018,04,24,09,33,14.90
2018,04,24,09,34,14.90
2018,04,24,09,35,14.90
2018,04,24,09,36,14.90
2018,04,24,09,37,14.90
2018,04,24,09,38,15.00
2018,04,24,09,39,15.00
2018,04,24,09,40,15.10
2018,04,24,09,41,15.10
2018,04,24,09,42,15.20
2018,04,24,09,43,15.20
2018,04,24,09,44,15.20
2018,04,24,09,45,15.20
2018,04,24,09,46,15.20
2018,04,24,09,47,15.30
2018,04,24,09,48,15.30
2018,04,24,09,49,15.30
2018,04,24,09,50,15.30
2018,04,24,09,51,15.40
2018,04,24,09,52,15.40
2018,04,24,09,53,15.40
2018,04,24,09,54,15.30
2018,04,24,09,55,15.30
2018,04,24,09,56,15.30
2018,04,24,09,57,15.20
2018,04,24,09,58,15.20
2018,04,24,09,59,15.10
2018,04,24,10,00,15.10
2018,04,24,10,01,15.10
2018,04,24,10,02,15.20
2018,04,24,10,03,15.20
2018,04,24,10,04,15.20
2018,04,24,10,05,15.30
2018,04,24,10,06,15.30
2018,04,24,10,07,15.40
2018,04,24,10,08,15.40
2018,04,24,10,09,15.40
2018,04,24,10,10,15.30
2018,04,24,10,11,15.30
2018,04,24,10,12,15.40
2018,04,24,10,13,15.40
2018,04,24,10,14,15.40
2018,04,24,10,15,15.50
2018,04,24,10,16,15.50
2018,04,24,10,17,15.50
2018,04,24,10,18,15.50
2018,04,24,10,19,15.50
2018,04,24,10,20,15.50
2018,04,24,10,21,15.50
2018,04,24,10,22,15.60
2018,04,24,10,23,15.60
2018,04,24,10,24,15.60
2018,04,24,10,25,15.70
2018,04,24,10,26,15.80
2018,04,24,10,27,15.80
2018,04,24,10,28,15.80
2018,04,24,10,29,15.80
2018,04,24,10,30,15.90
2018,04,24,10,31,15.90
2018,04,24,10,32,16.10
2018,04,24,10,33,16.10
2018,04,24,10,34,16.20
2018,04,24,10,35,16.30
2018,04,24,10,36,16.30
2018,04,24,10,37,16.40
2018,04,24,10,38,16.50
2018,04,24,10,39,16.70
2018,04,24,10,40,16.70
2018,04,24,10,41,16.70
2018,04,24,10,42,16.70
2018,04,24,10,43,16.80
2018,04,24,10,44,16.80
2018,04,24,10,45,16.90
2018,04,24,10,46,17.00
2018,04,24,10,47,17.10
2018,04,24,10,48,17.20
2018,04,24,10,49,17.10
2018,04,24,10,50,17.10
2018,04,24,10,51,17.10
2018,04,24,10,52,17.10
2018,04,24,10,53,17.10
2018,04,24,10,54,17.20
2018,04,24,10,55,17.30
2018,04,24,10,56,17.30
2018,04,24,10,57,17.30
2018,04,24,10,58,17.30
2018,04,24,10,59,17.30
2018,04,24,11,00,17.20
2018,04,24,11,01,17.30
2018,04,24,11,02,17.30
2018,04,24,11,03,17.40
2018,04,24,11,04,17.50
2018,04,24,11,05,17.50
2018,04,24,11,06,17.60
2018,04,24,11,07,17.70
2018,04,24,11,08,17.70
2018,04,24,11,09,17.70
2018,04,24,11,10,17.80
2018,04,24,11,11,17.80
2018,04,24,11,12,17.80
2018,04,24,11,13,17.90
2018,04,24,11,14,17.90
2018,04,24,11,15,18.00
2018,04,24,11,16,18.10
2018,04,24,11,17,18.20
2018,04,24,11,18,18.10
2018,04,24,11,19,18.10
2018,04,24,11,20,18.10
2018,04,24,11,21,18.10
2018,04,24,11,22,18.00
2018,04,24,11,23,17.90
2018,04,24,11,24,17.90
2018,04,24,11,25,17.90
2018,04,24,11,26,17.90
2018,04,24,11,27,17.80
2018,04,24,11,28,17.80
2018,04,24,11,29,17.80
2018,04,24,11,30,17.70
2018,04,24,11,31,17.70
2018,04,24,11,32,17.70
2018,04,24,11,33,17.80
2018,04,24,11,34,17.90
2018,04,24,11,35,18.00
2018,04,24,11,36,18.10
2018,04,24,11,37,18.20
2018,04,24,11,38,18.30
2018,04,24,11,39,18.30
2018,04,24,11,40,18.40
2018,04,24,11,41,18.50
2018,04,24,11,42,18.60
2018,04,24,11,43,18.60
2018,04,24,11,44,18.60
2018,04,24,11,45,18.60
2018,04,24,11,46,18.60
2018,04,24,11,47,18.70
2018,04,24,11,48,18.70
2018,04,24,11,49,18.60
2018,04,24,11,50,18.50
2018,04,24,11,51,18.40
2018,04,24,11,52,18.30
2018,04,24,11,53,18.40
2018,04,24,11,54,18.40
2018,04,24,11,55,18.40
2018,04,24,11,56,18.40
2018,04,24,11,57,18.40
2018,04,24,11,58,18.40
2018,04,24,11,59,18.50
2018,04,24,12,00,18.60
2018,04,24,12,01,18.60
2018,04,24,12,02,18.70
2018,04,24,12,03,18.70
2018,04,24,12,04,18.70
2018,04,24,12,05,18.80
2018,04,24,12,06,18.90
2018,04,24,12,07,18.90
2018,04,24,12,08,18.90
2018,04,24,12,09,18.90
2018,04,24,12,10,18.80
2018,04,24,12,11,18.80
2018,04,24,12,12,18.80
2018,04,24,12,13,18.80
2018,04,24,12,14,18.70
2018,04,24,12,15,18.70
2018,04,24,12,16,18.80
2018,04,24,12,17,18.80
2018,04,24,12,18,18.80
2018,04,24,12,19,18.80
2018,04,24,12,20,18.80
2018,04,24,12,21,18.80
2018,04,24,12,22,18.90
2018,04,24,12,23,18.90
2018,04,24,12,24,18.80
2018,04,24,12,25,18.80
2018,04,24,12,26,18.80
2018,04,24,12,27,18.80
2018,04,24,12,28,18.80
2018,04,24,12,29,18.80
2018,04,24,12,30,18.80
2018,04,24,12,31,18.80
2018,04,24,12,32,18.80
2018,04,24,12,33,18.80
2018,04,24,12,34,18.90
2018,04,24,12,35,18.90
2018,04,24,12,36,18.90
2018,04,24,12,37,18.90
2018,04,24,12,38,18.90
2018,04,24,12,39,18.90
2018,04,24,12,40,18.90
2018,04,24,12,41,18.90
2018,04,24,12,42,18.90
2018,04,24,12,43,18.90
2018,04,24,12,44,18.90
2018,04,24,12,45,18.90
2018,04,24,12,46,18.90
2018,04,24,12,47,18.90
2018,04,24,12,48,18.90
2018,04,24,12,49,18.80
2018,04,24,12,50,18.80
2018,04,24,12,51,18.70
2018,04,24,12,52,18.70
2018,04,24,12,53,18.70
2018,04,24,12,54,18.70
2018,04,24,12,55,18.70
2018,04,24,12,56,18.70
2018,04,24,12,57,18.70
2018,04,24,12,58,18.70
2018,04,24,12,59,18.70
2018,04,24,13,00,18.70
2018,04,24,13,01,18.80
2018,04,24,13,02,18.90
2018,04,24,13,03,19.00
2018,04,24,13,04,19.10
2018,04,24,13,05,19.10
2018,04,24,13,06,19.20
2018,04,24,13,07,19.20
2018,04,24,13,08,19.30
2018,04,24,13,09,19.20
2018,04,24,13,10,19.10
2018,04,24,13,11,19.20
2018,04,24,13,12,19.30
2018,04,24,13,13,19.40
2018,04,24,13,14,19.50
2018,04,24,13,15,19.50
2018,04,24,13,16,19.50
2018,04,24,13,17,19.50
2018,04,24,13,18,19.60
2018,04,24,13,19,19.50
2018,04,24,13,20,19.60
2018,04,24,13,21,19.60
2018,04,24,13,22,19.60
2018,04,24,13,23,19.60
2018,04,24,13,24,19.60
2018,04,24,13,25,19.70
2018,04,24,13,26,19.60
2018,04,24,13,27,19.60
2018,04,24,13,28,19.60
2018,04,24,13,29,19.70
2018,04,24,13,30,19.70
2018,04,24,13,31,19.80
2018,04,24,13,32,19.80
2018,04,24,13,33,19.80
2018,04,24,13,34,19.80
2018,04,24,13,35,19.80
2018,04,24,13,36,19.80
2018,04,24,13,37,19.80
2018,04,24,13,38,19.90
2018,04,24,13,39,19.90
2018,04,24,13,40,19.90
2018,04,24,13,41,19.90
2018,04,24,13,42,20.00
2018,04,24,13,43,20.10
2018,04,24,13,44,20.10
2018,04,24,13,45,20.20
2018,04,24,13,46,20.20
2018,04,24,13,47,20.20
2018,04,24,13,48,20.20
2018,04,24,13,49,20.20
2018,04,24,13,50,20.10
2018,04,24,13,51,20.10
2018,04,24,13,52,20.10
2018,04,24,13,53,20.20
2018,04,24,13,54,20.20
2018,04,24,13,55,20.10
2018,04,24,13,56,20.10
2018,04,24,13,57,20.10
2018,04,24,13,58,20.10
2018,04,24,13,59,20.10
2018,04,24,14,00,20.10
2018,04,24,14,01,20.10
2018,04,24,14,02,20.10
2018,04,24,14,03,20.10
2018,04,24,14,04,20.10
2018,04,24,14,05,20.00
2018,04,24,14,06,19.90
2018,04,24,14,07,19.90
2018,04,24,14,08,20.00
2018,04,24,14,09,20.10
2018,04,24,14,10,20.20
2018,04,24,14,11,20.20
2018,04,24,14,12,20.30
2018,04,24,14,13,20.40
2018,04,24,14,14,20.40
2018,04,24,14,15,20.50
2018,04,24,14,16,20.50
2018,04,24,14,17,20.50
2018,04,24,14,18,20.50
2018,04,24,14,19,20.50
2018,04,24,14,20,20.50
2018,04,24,14,21,20.50
2018,04,24,14,22,20.50
2018,04,24,14,23,20.40
2018,04,24,14,24,20.50
2018,04,24,14,25,20.50
2018,04,24,14,26,20.50
2018,04,24,14,27,20.60
2018,04,24,14,28,20.60
2018,04,24,14,29,20.60
2018,04,24,14,30,20.70
2018,04,24,14,31,20.70
2018,04,24,14,32,20.80
2018,04,24,14,33,20.80
2018,04,24,14,34,20.80
2018,04,24,14,35,20.80
2018,04,24,14,36,20.70
2018,04,24,14,37,20.70
2018,04,24,14,38,20.70
2018,04,24,14,39,20.80
2018,04,24,14,40,20.90
2018,04,24,14,41,21.00
2018,04,24,14,42,21.00
2018,04,24,14,43,21.00
2018,04,24,14,44,21.00
2018,04,24,14,45,21.00
2018,04,24,14,46,20.90
2018,04,24,14,47,20.80
2018,04,24,14,48,20.80
2018,04,24,14,49,20.80
2018,04,24,14,50,20.80
2018,04,24,14,51,20.90
2018,04,24,14,52,20.90
2018,04,24,14,53,20.90
2018,04,24,14,54,20.80
2018,04,24,14,55,20.80
2018,04,24,14,56,20.80
2018,04,24,14,57,20.80
2018,04,24,14,58,20.80
2018,04,24,14,59,20.90
2018,04,24,15,00,20.90
2018,04,24,15,01,20.90
2018,04,24,15,02,20.90
2018,04,24,15,03,20.90
2018,04,24,15,04,20.90
2018,04,24,15,05,20.80
2018,04,24,15,06,20.80
2018,04,24,15,07,20.80
2018,04,24,15,08,20.80
2018,04,24,15,09,20.80
2018,04,24,15,10,20.70
2018,04,24,15,11,20.70
2018,04,24,15,12,20.60
2018,04,24,15,13,20.60
2018,04,24,15,14,20.60
2018,04,24,15,15,20.60
2018,04,24,15,16,20.70
2018,04,24,15,17,20.70
2018,04,24,15,18,20.70
2018,04,24,15,19,20.70
2018,04,24,15,20,20.80
2018,04,24,15,21,20.80
2018,04,24,15,22,20.80
2018,04,24,15,23,20.80
2018,04,24,15,24,20.80
2018,04,24,15,25,20.80
2018,04,24,15,26,20.90
2018,04,24,15,27,20.90
2018,04,24,15,28,20.90
2018,04,24,15,29,21.00
2018,04,24,15,30,21.00
2018,04,24,15,31,21.00
2018,04,24,15,32,21.00
2018,04,24,15,33,21.00
2018,04,24,15,34,21.00
2018,04,24,15,35,20.90
2018,04,24,15,36,20.90
2018,04,24,15,37,20.80
2018,04,24,15,38,20.80
2018,04,24,15,39,20.80
2018,04,24,15,40,20.70
2018,04,24,15,41,20.70
2018,04,24,15,42,20.80
2018,04,24,15,43,20.80
2018,04,24,15,44,20.80
2018,04,24,15,45,20.80
2018,04,24,15,46,20.80
2018,04,24,15,47,20.80
2018,04,24,15,48,20.80
2018,04,24,15,49,20.90
2018,04,24,15,50,20.90
2018,04,24,15,51,20.90
2018,04,24,15,52,20.90
2018,04,24,15,53,20.90
2018,04,24,15,54,21.00
2018,04,24,15,55,21.00
2018,04,24,15,56,20.90
2018,04,24,15,57,20.80
2018,04,24,15,58,20.70
2018,04,24,15,59,20.60
2018,04,24,16,00,20.60
2018,04,24,16,01,20.70
2018,04,24,16,02,20.80
2018,04,24,16,03,20.90
2018,04,24,16,04,20.90
2018,04,24,16,05,21.00
2018,04,24,16,06,21.00
2018,04,24,16,07,21.00
2018,04,24,16,08,21.10
2018,04,24,16,09,21.20
2018,04,24,16,10,21.30
2018,04,24,16,11,21.40
2018,04,24,16,12,21.50
2018,04,24,16,13,21.60
2018,04,24,16,14,21.60
2018,04,24,16,15,21.60
2018,04,24,16,16,21.70
2018,04,24,16,17,21.70
2018,04,24,16,18,21.60
2018,04,24,16,19,21.50
2018,04,24,16,20,21.40
2018,04,24,16,21,21.30
2018,04,24,16,22,21.30
2018,04,24,16,23,21.20
2018,04,24,16,24,21.20
2018,04,24,16,25,21.20
2018,04,24,16,26,21.10
2018,04,24,16,27,21.10
2018,04,24,16,28,21.10
2018,04,24,16,29,21.00
2018,04,24,16,30,21.00
2018,04,24,16,31,21.00
2018,04,24,16,32,21.00
2018,04,24,16,33,21.00
2018,04,24,16,34,21.00
2018,04,24,16,35,21.00
2018,04,24,16,36,21.00
2018,04,24,16,37,21.00
2018,04,24,16,38,21.00
2018,04,24,16,39,20.90
2018,04,24,16,40,20.90
2018,04,24,16,41,21.00
2018,04,24,16,42,21.00
2018,04,24,16,43,21.00
2018,04,24,16,44,20.90
2018,04,24,16,45,20.90
2018,04,24,16,46,20.80
2018,04,24,16,47,20.80
2018,04,24,16,48,20.70
2018,04,24,16,49,20.70
2018,04,24,16,50,20.70
2018,04,24,16,51,20.70
2018,04,24,16,52,20.70
2018,04,24,16,53,20.70
2018,04,24,16,54,20.70
2018,04,24,16,55,20.70
2018,04,24,16,56,20.70
2018,04,24,16,57,20.60
2018,04,24,16,58,20.70
2018,04,24,16,59,20.70
2018,04,24,17,00,20.70
2018,04,24,17,01,20.70
2018,04,24,17,02,20.70
2018,04,24,17,03,20.60
2018,04,24,17,04,20.60
2018,04,24,17,05,20.60
2018,04,24,17,06,20.60
2018,04,24,17,07,20.60
2018,04,24,17,08,20.60
2018,04,24,17,09,20.60
2018,04,24,17,10,20.60
2018,04,24,17,11,20.60
2018,04,24,17,12,20.50
2018,04,24,17,13,20.50
2018,04,24,17,14,20.60
2018,04,24,17,15,20.50
2018,04,24,17,16,20.50
2018,04,24,17,17,20.50
2018,04,24,17,18,20.50
2018,04,24,17,19,20.50
2018,04,24,17,20,20.50
2018,04,24,17,21,20.50
2018,04,24,17,22,20.50
2018,04,24,17,23,20.50
2018,04,24,17,24,20.50
2018,04,24,17,25,20.60
2018,04,24,17,26,20.60
2018,04,24,17,27,20.60
2018,04,24,17,28,20.60
2018,04,24,17,29,20.60
2018,04,24,17,30,20.60
2018,04,24,17,31,20.60
2018,04,24,17,32,20.60
2018,04,24,17,33,20.60
2018,04,24,17,34,20.60
2018,04,24,17,35,20.50
2018,04,24,17,36,20.50
2018,04,24,17,37,20.50